Regional Weather Roundup
Issued by NWS

Home | Current Version | Previous Version | Graphics & Text | Print | Product List | Glossary Off
Versions: 1 2 3 4 5 6 7 8 9 10 11 12 13 14 15 16 17 18 19 20 21 22 23 24 25 26 27 28 29 30 31 32 33 34 35 36 37 38 39 40 41 42 43 44 45 46 47 48 49 50

088
ASUS43 KLSX 050207
RWRMO

WEATHER SUMMARY FOR MISSOURI
NATIONAL WEATHER SERVICE SPRINGFIELD MO
900 PM CDT WED MAY 04 2016

NOTE: "FAIR" INDICATES FEW OR NO CLOUDS BELOW 12,000 FEET WITH NO
       SIGNIFICANT WEATHER AND/OR OBSTRUCTIONS TO VISIBILITY.
       CURRENT SKY AND/OR WEATHER CONDITIONS ARE NOT AVAILABLE FOR
       CHILLICOTHE AND FARMINGTON.

MOZ001>031-035>038-043-044-053-054-050300-
...NORTHERN AND WESTERN MISSOURI...

CITY           SKY/WX    TMP DP  RH WIND       PRES   REMARKS
KANSAS CTY INT CLEAR     58  36  43 NW6       29.98R
KANSAS C DTWN  CLEAR     62  35  36 N3        29.97R
LEE`S SUMMIT   CLEAR     61  37  41 N6        29.98R
ST JOSEPH      CLEAR     57  39  51 CALM      29.98R
CHILLICOTHE      N/A     56  41  57 CALM      29.97S
KIRKSVILLE     CLEAR     55  35  47 NW7       29.94R

$$
MOZ066>068-077>081-088>096-101>105-050300-
...SOUTHWEST MISSOURI...

CITY           SKY/WX    TMP DP  RH WIND       PRES   REMARKS
SPRINGFIELD    CLEAR     57  38  48 N6        29.95R
JOPLIN         CLEAR     59  42  53 N3        29.98R
BRANSON        CLEAR     63  37  39 NW8       29.96R

$$
MOZ032>034-039>042-045>050-055>058-069>072-050300-
...CENTRAL MISSOURI...

CITY           SKY/WX    TMP DP  RH WIND       PRES   REMARKS
COLUMBIA       CLEAR     55  37  50 N8        29.94R
JEFFERSON CITY CLEAR     61  35  37 N5        29.94R
ROLLA          CLEAR     55  36  48 N5        29.91R
SEDALIA        CLEAR     60  38  43 N9        29.97R
WHITEMAN AFB   CLEAR     57  39  51 N7        29.96R
WARRENSBURG    CLEAR     59  37  44 N5        29.96R
OSAGE BEACH    CLEAR     57  34  41 NW3       29.95R

$$
MOZ051-052-059>065-050300-
...EAST CENTRAL MISSOURI...

CITY           SKY/WX    TMP DP  RH WIND       PRES   REMARKS
ST LOUIS INTL  PTCLDY    56  37  49 NW5       29.90R
SPIRIT OF STL  CLEAR     53  39  59 W3        29.90R
ST CHARLES     PTCLDY    56  39  53 NW6       29.89R

$$
MOZ072>076-082>087-097>100-106>115-050300-
...SOUTH CENTRAL AND SOUTHEAST MISSOURI...

CITY           SKY/WX    TMP DP  RH WIND       PRES   REMARKS
CAPE GIRARDEAU PTCLDY    60  40  47 N12       29.87R
FARMINGTON     PTCLDY    57  36  45 N5        29.91R
POPLAR BLUFF   CLEAR     59  40  49 N8        29.87R
WEST PLAINS    CLEAR     58  35  42 N5        29.93R

$$



USA.gov is the U.S. government's official web portal to all federal, state and local government web resources and services.